Weather reports worldwide

Advertisment
Fyvie castle, United Kingdom (99010): temperature & dewpoint: 17.05.2018 02:00:00 - 23.05.2018 02:00:00 (BST)Fyvie castle, United Kingdom (99010): precipitation: 17.05.2018 02:00:00 - 23.05.2018 02:00:00 (BST)
Date & Time tt [°C] td [°C] rr [mm]
23.05.2018 02:00:00 8,0 7,0 0,0
23.05.2018 01:00:00 8,1 7,0 0,0
23.05.2018 00:00:00 8,2 6,7 0,0
22.05.2018 23:00:00 8,4 7,0 0,0
22.05.2018 22:00:00 8,6 7,1 0,0
22.05.2018 21:00:00 8,7 7,2 0,0
22.05.2018 20:00:00 9,2 6,8 0,0
22.05.2018 19:00:00 9,3 6,8 0,0
22.05.2018 18:00:00 9,6 6,0 0,0
22.05.2018 17:00:00 9,9 6,1 0,0
22.05.2018 16:00:00 10,0 6,5 0,0
22.05.2018 15:00:00 10,0 6,9 0,0
22.05.2018 14:00:00 9,4 6,6 0,0
22.05.2018 13:00:00 9,2 7,1 0,0
22.05.2018 12:00:00 9,0 6,9 0,0
22.05.2018 11:00:00 9,5 7,7 0,0
22.05.2018 10:00:00 8,3 7,2 0,0
22.05.2018 09:00:00 8,1 6,7 0,0
22.05.2018 08:00:00 8,0 6,0 0,0
22.05.2018 07:00:00 8,0 5,8 0,0
22.05.2018 06:00:00 7,6 5,8 0,0
22.05.2018 05:00:00 7,5 6,2 0,0
22.05.2018 04:00:00 7,6 6,4 0,0
22.05.2018 03:00:00 7,6 6,4 0,0
22.05.2018 02:00:00 7,8 6,2 0,0
22.05.2018 01:00:00 7,8 6,3 0,0
22.05.2018 00:00:00 7,6 6,4 0,0
21.05.2018 23:00:00 7,7 6,5 0,0
21.05.2018 22:00:00 7,7 6,7 0,0
21.05.2018 21:00:00 7,8 7,1 0,0
21.05.2018 20:00:00 8,1 7,2 0,0
21.05.2018 19:00:00 8,7 7,6 0,0
21.05.2018 18:00:00 9,6 7,9 0,0
21.05.2018 17:00:00 12,9 9,7 0,0
21.05.2018 16:00:00 16,1 11,2 0,0
21.05.2018 15:00:00 16,8 10,8 0,0
21.05.2018 14:00:00 19,1 10,6 0,0
21.05.2018 13:00:00 18,7 11,0 0,0
21.05.2018 12:00:00 18,2 10,7 0,0
21.05.2018 11:00:00 16,5 10,7 0,0
21.05.2018 10:00:00 14,7 10,2 0,0
21.05.2018 09:00:00 12,2 9,4 0,0
21.05.2018 08:00:00 9,5 8,4 0,0
21.05.2018 07:00:00 8,6 7,8 0,0
21.05.2018 06:00:00 8,4 7,2 0,0
21.05.2018 05:00:00 9,2 7,2 0,0
21.05.2018 04:00:00 10,5 7,7 0,0
21.05.2018 03:00:00 11,6 7,8 0,0
21.05.2018 02:00:00 11,7 8,6 0,0
21.05.2018 01:00:00 11,6 9,1 0,4
21.05.2018 00:00:00 12,4 10,5 0,6
20.05.2018 23:00:00 13,4 9,6 0,2
20.05.2018 22:00:00 14,7 8,0 0,0
20.05.2018 21:00:00 15,3 8,2 0,0
20.05.2018 20:00:00 15,7 8,2 0,0
20.05.2018 19:00:00 16,5 8,9 0,0
20.05.2018 18:00:00 17,7 9,0 0,0
20.05.2018 17:00:00 17,9 9,1 0,0
20.05.2018 16:00:00 17,8 8,7 0,0
20.05.2018 15:00:00 18,5 9,1 0,0
20.05.2018 14:00:00 17,9 9,7 0,0
20.05.2018 13:00:00 16,4 8,5 0,0
20.05.2018 12:00:00 16,0 9,0 0,0
20.05.2018 11:00:00 15,2 8,6 0,0
20.05.2018 10:00:00 14,2 8,4 0,0
20.05.2018 09:00:00 12,8 8,6 0,0
20.05.2018 08:00:00 11,4 8,6 0,8
20.05.2018 07:00:00 11,8 8,2 0,6
20.05.2018 06:00:00 12,3 7,2 0,0
20.05.2018 05:00:00 12,4 6,6 0,0
20.05.2018 04:00:00 12,2 6,1 0,0
20.05.2018 03:00:00 11,9 6,0 0,0
20.05.2018 02:00:00 11,7 6,0 0,0
20.05.2018 01:00:00 12,0 6,2 0,0
20.05.2018 00:00:00 10,7 7,0 0,0
19.05.2018 23:00:00 12,5 6,9 0,0
19.05.2018 22:00:00 13,5 7,2 0,0
19.05.2018 21:00:00 13,5 8,1 0,0
19.05.2018 20:00:00 14,8 8,1 0,0
19.05.2018 19:00:00 15,7 8,0 0,0
19.05.2018 18:00:00 16,6 7,8 0,0
19.05.2018 17:00:00 17,0 7,9 0,0
19.05.2018 16:00:00 18,9 7,8 0,0
19.05.2018 15:00:00 19,0 9,3 0,0
19.05.2018 14:00:00 19,1 8,6 0,0
19.05.2018 13:00:00 18,9 7,2 0,0
19.05.2018 12:00:00 19,1 7,3 0,0
19.05.2018 11:00:00 18,3 7,2 0,0
19.05.2018 10:00:00 17,2 9,1 0,0
19.05.2018 09:00:00 13,3 10,9 0,0
19.05.2018 08:00:00 7,8 7,8 0,0
19.05.2018 07:00:00 4,4 4,3 0,0
19.05.2018 06:00:00 2,8 2,5 0,0
19.05.2018 05:00:00 2,7 2,3 0,0
19.05.2018 04:00:00 3,3 2,8 0,0
19.05.2018 03:00:00 3,9 3,4 0,0
19.05.2018 02:00:00 4,6 3,9 0,0
19.05.2018 01:00:00 5,7 4,7 0,0
19.05.2018 00:00:00 7,1 6,0 0,0
18.05.2018 23:00:00 7,2 5,4 0,0
18.05.2018 22:00:00 9,5 5,8 0,0
18.05.2018 21:00:00 12,1 6,7 0,0
18.05.2018 20:00:00 14,4 6,4 0,0
18.05.2018 19:00:00 15,9 6,8 0,0
18.05.2018 18:00:00 16,6 6,9 0,0
18.05.2018 17:00:00 18,6 7,7 0,0
18.05.2018 16:00:00 19,7 8,1 0,0
18.05.2018 15:00:00 19,5 7,3 0,0
18.05.2018 14:00:00 18,8 8,2 0,0
18.05.2018 13:00:00 16,9 5,8 0,0
18.05.2018 12:00:00 16,4 6,6 0,0
18.05.2018 11:00:00 15,4 6,4 0,0
18.05.2018 10:00:00 14,1 5,0 0,0
18.05.2018 09:00:00 10,6 7,6 0,0
18.05.2018 08:00:00 5,7 5,7 0,0
18.05.2018 07:00:00 2,7 2,7 0,0
18.05.2018 06:00:00 1,1 0,9 0,0
18.05.2018 05:00:00 0,6 0,2 0,0
18.05.2018 04:00:00 1,1 0,7 0,0
18.05.2018 03:00:00 1,7 1,2 0,0
18.05.2018 02:00:00 2,2 1,6 0,0
18.05.2018 01:00:00 3,1 2,3 0,0
18.05.2018 00:00:00 4,5 3,3 0,0
17.05.2018 23:00:00 5,7 3,9 0,0
17.05.2018 22:00:00 7,3 4,2 0,0
17.05.2018 21:00:00 9,2 4,4 0,0
17.05.2018 20:00:00 11,2 5,6 0,0
17.05.2018 19:00:00 12,9 5,7 0,0
17.05.2018 18:00:00 14,8 2,8 0,0
17.05.2018 17:00:00 15,3 2,2 0,0
17.05.2018 16:00:00 14,8 -1,2 0,0
17.05.2018 15:00:00 14,3 0,2 0,0
17.05.2018 14:00:00 13,6 4,2 0,0
17.05.2018 13:00:00 12,5 3,4 0,0
17.05.2018 12:00:00 11,6 4,0 0,0
17.05.2018 11:00:00 11,5 5,0 0,0
17.05.2018 10:00:00 10,6 5,2 0,0
17.05.2018 09:00:00 9,0 4,5 0,0
17.05.2018 08:00:00 7,1 5,7 0,0
17.05.2018 07:00:00 4,2 4,1 0,0
17.05.2018 06:00:00 3,2 2,9 0,0
17.05.2018 05:00:00 2,9 2,4 0,0
17.05.2018 04:00:00 3,5 2,9 0,0
17.05.2018 03:00:00 4,2 3,5 0,0
17.05.2018 02:00:00 4,6 3,2 0,0

tt = temperature
td = dewpoint
rr = precipitation

Next stations